Location: Newark
(37.9717°N, 99.9089°W)
Time: 22:05:06
(UTC+00:00)

X-37B - Pass Details

Date: 03 October 2021
Orbit: 385 x 389 km, 45.0° (Epoch: 13 October)

Event Time Altitude Azimuth Distance (km) Brightness Sun altitude
Exits shadow 10:06:38 12° 74° (ENE) 1,296 4.1 -30.1°
Drops below altitude 10° 10:06:58 10° 77° (ENE) 1,410 4.3 -30.0°
Sets 10:09:12 0° 89° (E) 2,264 5.5 -29.6°
